Regional Weather Roundup
Issued by NWS State College, PA

Home | Current Version | Previous Version | Text Only | Print | Product List | Glossary On
Versions: 1 2 3 4 5 6 7 8 9 10 11 12 13 14 15 16 17 18 19 20 21 22 23 24 25 26 27 28 29 30 31 32 33 34 35 36 37 38 39 40 41 42 43 44 45 46 47 48 49 50
000
ASUS41 KCTP 031810
RWRCTP

REGIONAL WEATHER ROUNDUP
NATIONAL WEATHER SERVICE STATE COLLEGE PA
200 PM EDT TUE MAY 03 2016

Note: "fair" indicates few or no clouds below 12,000 feet with no
significant weather and/or obstructions to visibility.

* = STATION THAT DOES NOT REPORT PRECIPITATION /E.G. RAIN...SNOW...ETC/
    THUNDER OR FOG.

PAZ002>004-007>009-013>016-020>023-029>032-031900-
WESTERN PENNSYLVANIA

CITY           SKY/WX    TMP DP  RH WIND       PRES   REMARKS
ERIE           PTSUNNY   47  42  83 NW7       29.87F
MEADVILLE      CLOUDY    49  42  77 SW7       29.85F
FRANKLIN*      PTSUNNY   54  39  58 NW8       29.86F
NEW CASTLE     CLOUDY    57  43  59 VRB7      29.85F
BEAVER COUNTY  PTSUNNY   57  43  58 NW3       29.85F
BUTLER*        MOSUNNY   59  45  58 W6        29.86F
PITTSBURGH INT PTSUNNY   61  39  44 VRB3      29.82F
PITTSBURGH     CLOUDY    61  43  51 CALM      29.82F
INDIANA*       PTSUNNY   63  46  55 NW8G16    29.84F
LATROBE        PTSUNNY   61  50  67 CALM      29.83F
WASHINGTON CO* CLOUDY    61  46  59 W7        29.84F
$$

PAZ004>006-010>012-017>019-024>028-033>037-041-042-045-046-049>053-031900-
CENTRAL PENNSYLVANIA

CITY           SKY/WX    TMP DP  RH WIND       PRES   REMARKS
BRADFORD       CLOUDY    50  44  80 CALM      29.82F
DUBOIS         CLOUDY    58  41  53 SW16      29.80F
CLEARFIELD     CLOUDY    61  43  51 W9        29.80F
JOHNSTOWN      CLOUDY    59  41  51 W14G20    29.81S
ALTOONA        PTSUNNY   61  49  64 CALM      29.80F
STATE COLLEGE  PTSUNNY   55  50  82 CALM      29.81F
WILLIAMSPORT   CLOUDY    52  47  83 CALM      29.83F FOG
SELINSGROVE    CLOUDY    55  50  83 N3        29.83S
FT INDIANTOWN  CLOUDY    57  55  92 E3        29.81S
CAPITAL CITY   CLOUDY    59  52  77 CALM      29.81S
HARRISBURG     CLOUDY    59  53  80 NE5       29.81S
YORK           CLOUDY    58  54  86 NW5       29.81S
$$

PAZ038>040-043-044-047-048-054-055-060>062-067>071-031900-
EASTERN PENNSYLVANIA

CITY           SKY/WX    TMP DP  RH WIND       PRES   REMARKS
SCRANTON       CLOUDY    53  48  83 N6        29.81F
MOUNT POCONO   FOG       47  46  97 VRB5      29.81F VSB 1
ALLENTOWN      LGT RAIN  55  51  86 NE8       29.82F
QUAKERTOWN*    CLOUDY    55  54  94 E3        29.82F
READING        CLOUDY    58  52  80 E7        29.80R
LANCASTER      CLOUDY    57  54  89 E5        29.81R
COATESVILLE    CLOUDY    55  55 100 E6G13     29.81S
POTTSTOWN      CLOUDY    55  52  89 NE6       29.82F
BLUE BELL      CLOUDY    54  52  94 E7        29.80S
DOYLESTOWN     CLOUDY    54  52  93 NE6       29.79F
WILLOW GROVE   NOT AVBL
NORTH PHILA    CLOUDY    57  53  86 E12       29.82S
PHILADELPHIA   CLOUDY    57  52  83 NE8       29.82R
$$



USA.gov is the U.S. government's official web portal to all federal, state and local government web resources and services.